Content
SEND FEEDBACK

Daily
Averages
Monthly
Summary
United Kingdom

BROWNHILL, ENGLAND


Home > Europe > United Kingdom > England
Elevation: 377 feet     Latitude: 53 48N     Longitude: 002 30W

WEATHER
 
SELECT A DAY
Number of Records: 31,039;   Date Range: 7/1/96 - 12/24/14
 
SHARE

PRINT THIS DATA

[ ← Previous Day ]
WEATHER ALMANAC - FEBRUARY 5, 2013
[ Next Day → ]
[ °C ]   °F
Weather ElementAverageHighLow
Temperature41.1 °F44.6 °F (5:50 pm)37.4 °F (6:50 am)
Dewpoint36.5 °F41 °F (5:20 pm)30.2 °F (7:20 am)
Humidity82.4 %93 % (12:50 pm)70 % (7:20 am)
Barometer29.33 in29.42 in (6:20 am)29.24 in (2:50 pm)
Wind Speed27.3 mph33.4 mph (12:50 pm)
Wind Gust40.3 mph (7:50 am)
Weather ElementAverage
Visibility5.7 mi
Wind DirectionWNW (286.1 °)

Weather ElementTotal
Precipitation---
Heating Degree Days24 (Base 65)
Averaged from 33 records on February 5, 2013
WEATHER CONDITIONS BREAKOUT
WIND DIRECTION BREAKOUT
WEATHER BY HOUR - FEBRUARY 5, 2013
[ °C ]   °F
Local TimeTemperatureDewpointHumidityBarometerVisibilityWind DirectionWind SpeedGust SpeedPrecipitationEventsConditions
6:20 AM39.2 °F32.0 °F75 %29.42 in6.2 miWest (280°)26.5 mphScattered Clouds
6:50 AM37.4 °F33.8 °F87 %29.42 in6.2 miWest (280°)21.9 mph33.4 mphMostly Cloudy
7:20 AM39.2 °F30.2 °F70 %29.42 in6.2 miWest (280°)28.8 mphScattered Clouds
7:50 AM39.2 °F32.0 °F75 %29.42 in6.2 miWest (280°)28.8 mph40.3 mphMostly Cloudy
8:20 AM37.4 °F32.0 °F81 %29.42 in6.2 miWest (280°)27.6 mph39.1 mphScattered Clouds
8:50 AM38.0 °F32.0 °F70 %West (270°)29.9 mph
8:50 AM39.2 °F32.0 °F75 %29.42 in6.2 miWest (270°)31.1 mphScattered Clouds
9:20 AM39.2 °F32.0 °F75 %29.42 in6.2 miWest (270°)28.8 mphScattered Clouds
9:50 AM39.2 °F32.0 °F75 %29.42 in6.2 miWest (270°)29.9 mphScattered Clouds
10:50 AM39.2 °F32.0 °F75 %29.42 in6.2 miWest (270°)31.1 mphScattered Clouds
11:20 AM41.0 °F33.8 °F76 %29.39 in6.2 miWest (270°)28.8 mph40.3 mphScattered Clouds
11:50 AM39.0 °F33.0 °F72 %West (260°)29.9 mph
11:50 AM39.2 °F33.8 °F81 %29.39 in6.2 miWest (260°)31.1 mphScattered Clouds
12:20 PM39.2 °F35.6 °F87 %29.36 in6.2 miWest (260°)28.8 mphRainLight Rain Showers
12:50 PM37.4 °F35.6 °F93 %29.33 in5.0 miWSW (250°)33.4 mphRain-SnowRain Showers
2:20 PM41.0 °F39.2 °F93 %29.27 in5.0 miWest (270°)33.4 mphRainLight Rain
2:50 PM41.0 °F39.2 °F93 %29.24 in5.0 miWest (270°)31.1 mphScattered Clouds
2:50 PM40.0 °F38.0 °F89 %West (270°)31.1 mph
3:20 PM42.8 °F39.2 °F87 %29.24 in6.2 miWest (270°)32.2 mphScattered Clouds
3:50 PM42.8 °F39.2 °F87 %29.24 in6.2 miWest (280°)26.5 mphScattered Clouds
4:20 PM42.8 °F39.2 °F87 %29.24 in5.6 miWest (280°)25.3 mphScattered Clouds
4:50 PM42.8 °F39.2 °F87 %29.24 in4.3 miWest (280°)28.8 mph40.3 mphRainLight Rain
5:20 PM42.8 °F41.0 °F93 %29.24 in4.3 miWNW (290°)25.3 mphRainLight Rain
5:50 PM44.0 °F40.0 °F79 %WNW (300°)25.3 mph
5:50 PM44.6 °F41.0 °F87 %29.24 in4.3 miWNW (300°)24.2 mphRainLight Rain
6:20 PM44.6 °F39.2 °F81 %29.24 in4.3 miNW (310°)24.2 mphMostly Cloudy
6:50 PM44.6 °F41.0 °F87 %29.27 in5.0 miNW (320°)24.2 mphMostly Cloudy
7:20 PM44.6 °F41.0 °F87 %29.27 in6.2 miNW (320°)21.9 mphMostly Cloudy
7:50 PM44.6 °F39.2 °F81 %29.30 in6.2 miNNW (330°)20.7 mphMostly Cloudy
8:20 PM42.8 °F41.0 °F93 %29.33 in6.2 miNW (320°)23.0 mphMostly Cloudy
8:50 PM43.0 °F39.0 °F81 %NW (320°)21.9 mph
8:50 PM42.8 °F39.2 °F87 %29.33 in6.2 miNNW (330°)21.9 mphMostly Cloudy
11:50 PM43.0 °F37.0 °F74 %NNW (330°)21.9 mph
Hourly data recorded from EGNO, located miles away from Brownhill, England







STORIES FROM OUR PARTNERS